Location: Asheville, NC
(35.6000°N, 82.5500°W)
Time: 14:35:49
(UTC-05:00)

HO-68 - Pass Details

Date: 06 January 2018
Orbit: 1192 x 1205 km, 100.1° (Epoch: 16 January)

Event Time Altitude Azimuth Distance (km) Brightness Sun altitude
Rises 05:50:27 0° 39° (NE) 4,093 ? -21.8°
Reaches altitude 10° 05:55:26 10° 70° (ENE) 3,124 ? -20.8°
Maximum altitude 05:57:50 12° 90° (E) 2,984 ? -20.3°
Drops below altitude 10° 06:00:13 10° 110° (ESE) 3,119 ? -19.8°
Sets 06:05:08 0° 140° (SE) 4,078 ? -18.9°
